Location: Caseificio
(44.7500°N, 11.0500°E)
Time: 17:17:04
(UTC+00:00)

Resurs 1-4 Rocket - Pass Details

Date: 26 May 2022
Orbit: 800 x 813 km, 98.7° (Epoch: 06 July)

Event Time Altitude Azimuth Distance (km) Brightness Sun altitude
Rises 01:21:47 0° 10° (N) 3,322 6.6 -17.9°
Reaches altitude 10° 01:24:09 10° 6° (N) 2,388 5.5 -17.7°
Maximum altitude 01:29:19 57° 289° (WNW) 942 2.3 -17.2°
Enters shadow 01:31:57 28° 222° (SW) 1,469 2.9 -16.9°
